Location: Conjunto Santa Maria
(19.9513°S, 43.9599°W)
Time: 13:46:29
(UTC+00:00)

Atlas Centaur 2 - Pass Details

Date: 21 January 2021
Orbit: 459 x 1309 km, 30.4° (Epoch: 03 March)

Event Time Altitude Azimuth Distance (km) Brightness Sun altitude
Rises 22:56:17 0° 237° (WSW) 2,500 6.5 -16.9°
Reaches altitude 10° 22:58:45 10° 221° (SW) 1,605 4.8 -17.4°
Maximum altitude 23:01:42 24° 166° (SSE) 1,019 2.8 -18.0°
Enters shadow 23:03:13 18° 130° (SE) 1,218 2.9 -18.3°
